#timestamp,LO_Frequency,Hit,StdDev 
1557399615.2,286047003.9,N
1557399635.1,286047002.8,N
1557399636.0,286047002.8,N
1557399655.8,286046998.7,N
1557399675.6,286046999.4,N
1557399695.5,286046998.4,N
1557399715.3,286047001.2,N
1557399735.2,286047001.6,N
1557399755.9,286047003.4,N
1557399775.7,286047003.2,N
1557399795.6,286047003.6,N
1557399815.4,286047003.6,N
1557399835.2,286047006.0,Y
1557399855.1,286047004.0,P
1557399856.0,286047004.0,P
1557399875.8,286047003.3,P
1557399895.7,286047004.8,Y
1557399915.5,286046998.5,P
1557399935.3,286046998.6,N
1557399955.2,286046996.9,N
1557399975.0,286046995.8,N
1557399975.9,286046995.8,N
1557399995.7,286046993.6,N
1557400015.6,286046991.9,N
1557400035.4,286046992.0,N
1557400055.3,286046996.3,N
1557400075.1,286046995.2,N
1557400076.0,286046995.2,N
1557400095.8,286046997.7,N
1557400115.7,286046995.2,N
1557400135.5,286046996.1,N
1557400155.3,286046995.5,N
1557400175.2,286046995.8,N
1557400195.0,286046997.4,N
1557400195.9,286046997.4,N
1557400215.8,286046997.8,N
1557400235.6,286046997.4,N
1557400255.4,286046995.0,N
1557400275.3,286046999.5,N
1557400295.1,286046999.5,N
1557400315.8,286046999.4,N
1557400335.7,286046995.0,N
1557400355.5,286046997.7,N
1557400375.4,286046995.3,N
1557400395.2,286046995.7,N
1557400415.0,286046993.3,N
1557400415.9,286046993.3,N
1557400465.8,286046993.8,E
1557400475.7,286046997.8,N
1557400495.6,286047002.3,P
1557400515.4,286047000.2,N
1557400535.2,286047000.6,N
1557400555.1,286047001.0,N
1557400556.0,286047001.0,N
1557400575.8,286047000.3,N
1557400595.7,286047001.6,N
1557400615.5,286047002.3,N
1557400635.3,286047000.6,N
1557400655.2,286047001.2,N
1557400675.9,286047001.1,N
1557400695.7,286046998.2,N
1557400715.6,286047000.8,N
1557400735.4,286046998.5,N
1557400755.3,286047001.2,N
1557400775.1,286046998.6,N
1557400776.0,286046998.6,N
1557400795.8,286047000.8,N
1557400815.7,286046996.5,N
1557400835.5,286046999.2,N
1557400855.3,286046999.1,N
1557400875.2,286046999.1,N
1557400895.0,286046996.7,N
1557400895.9,286046996.7,N
1557400915.8,286046996.8,N
1557400935.6,286046996.7,N
1557400955.4,286046999.2,N
1557400975.3,286046998.1,N
1557400995.1,286047001.1,N
1557401015.9,286046998.9,N
1557401035.7,286046999.1,N
1557401055.6,286046997.0,N
1557401075.4,286046997.8,N
1557401095.3,286046999.6,N
1557401115.1,286046998.6,N
1557401135.9,286047000.3,N
1557401155.7,286047000.1,N
1557401175.5,286046999.7,N
1557401195.4,286047002.7,N
1557401215.2,286047000.9,N
1557401235.1,286046998.1,N
1557401236.0,286046998.1,N
1557401255.8,286047000.7,N
1557401275.6,286047001.0,N
1557401295.5,286046998.2,N
1557401315.3,286046999.4,N
1557401335.1,286046996.9,N
1557401355.9,286046997.9,N
1557401375.7,286046995.2,Y
1557401395.6,286046997.9,P
1557401415.4,286046997.0,P
1557401435.2,286046996.8,P
1557401455.1,286047001.2,N
1557401456.0,286047001.2,N
1557401475.8,286046996.6,N
1557401495.6,286046999.5,N
1557401515.5,286046998.9,N
1557401535.3,286047001.1,N
1557401555.2,286047000.3,N
1557401575.0,286047002.7,N
1557401575.9,286047002.7,N
1557401595.7,286047000.9,N
1557401615.6,286046999.4,N
1557401635.4,286046998.3,N
1557401655.3,286046998.9,N
1557401675.1,286046999.2,N
1557401676.0,286046999.2,N
1557401695.8,286046999.6,N
1557401715.7,286046999.3,N
1557401735.5,286046998.1,N
1557401755.3,286047000.7,N
1557401775.2,286047001.3,N
1557401795.0,286047001.7,N
1557401795.9,286047001.7,N
1557401815.8,286047003.9,N
1557401835.6,286047001.0,N
1557401855.4,286046999.9,N
1557401875.3,286047002.3,N
1557401895.1,286047002.6,N
1557401915.9,286047000.9,N
1557401935.7,286046999.8,N
1557401955.5,286047000.2,N
1557401975.4,286047002.2,N
1557401995.2,286047001.3,N
1557402015.0,286047004.0,N
1557402015.9,286047004.0,N
1557402035.8,286047003.7,N
1557402055.6,286047005.2,Y
1557402075.5,286047000.1,P
1557402095.3,286046998.7,N
1557402115.1,286046999.4,N
1557402135.9,286046999.0,N
1557402155.7,286047001.8,N
1557402175.5,286047004.4,Y
1557402195.4,286047001.8,P
1557402215.2,286047011.9,P
1557402235.1,286047002.1,N
1557402236.0,286047002.1,N
1557402255.8,286047003.2,N
1557402275.6,286047001.4,N
1557402295.5,286047002.7,N
1557402315.3,286046997.0,N
1557402335.1,286046996.7,N
1557402355.9,286046998.9,N
1557402375.7,286046999.5,N
1557402395.6,286046999.1,N
1557402415.4,286046999.1,N
1557402435.2,286046998.9,N
1557402455.1,286046998.5,N
1557402456.0,286046998.5,N
1557402475.8,286047002.8,N
1557402495.7,286047000.4,N
1557402515.5,286046998.5,N
1557402535.3,286046998.1,N
1557402555.2,286046999.6,N
1557402575.0,286046999.0,N
1557402575.9,286046999.0,N
1557402595.7,286046998.9,N
1557402615.6,286047000.3,N
1557402635.4,286046999.9,N
1557402655.3,286046999.9,N
1557402675.1,286047004.3,N
1557402695.8,286047000.2,N
1557402715.7,286047000.5,N
1557402735.5,286047002.4,N
1557402755.4,286047000.0,N
1557402775.2,286047000.5,N
1557402795.0,286047000.1,N
1557402795.9,286047000.1,N
1557402815.8,286046999.8,N
1557402835.6,286047002.0,N
1557402855.4,286047002.2,N
1557402875.3,286047002.0,N
1557402895.1,286047000.3,N
1557402915.9,286047001.0,N
1557402935.7,286047000.2,N
1557402955.5,286047003.9,N
1557402975.4,286047003.1,N
1557402995.2,286047001.7,N
1557403015.0,286046998.3,N
1557403015.9,286046998.3,N
1557403035.8,286046999.2,N
1557403055.6,286046999.1,N
1557403075.5,286047002.8,N
1557403095.3,286047003.7,N
1557403115.1,286047003.8,N
1557403135.9,286046999.7,N
1557403155.7,286047000.5,N
1557403175.5,286047000.8,N
1557403195.4,286047000.5,N
